EA4CZ-7 Weather Reports


time (UTC)temp
F
wind
direction
speed
knots
gust
knots
rain 1hr
in
rain 24hr
in
rain mn
in
humidity
%
barometer
mb
20260901185050 95 0.0 0.0 0.00 0.00 0.00 23 938.6
20260901184550 95 0.0 0.0 0.00 0.00 0.00 23 938.5
20260901184050 96 0.0 0.0 0.00 0.00 0.00 23 938.6
20260901183550 96 0.0 0.0 0.00 0.00 0.00 23 938.5
20260901183050 97 0.0 0.0 0.00 0.00 0.00 23 938.5
20260901182550 97 0.0 0.0 0.00 0.00 0.00 23 938.5
20260901182050 97 0.0 0.0 0.00 0.00 0.00 23 938.5
20260901181550 98 0.0 0.0 0.00 0.00 0.00 22 938.5
20260901181050 99 0.0 0.0 0.00 0.00 0.00 22 938.5
20260901180550 100 0.0 0.0 0.00 0.00 0.00 22 938.5
20260901180049 100 0.0 0.0 0.00 0.00 0.00 22 938.6
20260901175049 101 0.0 0.0 0.00 0.00 0.00 24 936.4
20260901172002 99 0.0 0.0 0.00 0.00 0.00 31 940.5
20260901171502 99 0.0 0.0 0.00 0.00 0.00 30 940.7
20260901171002 99 0.0 0.0 0.00 0.00 0.00 30 939.2
20260901145855 97 0.0 0.0 0.00 0.00 0.00 34 936.9
20260901144318 96 0.0 0.0 0.00 0.00 0.00 35 940.8
20260901143818 96 0.0 0.0 0.00 0.00 0.00 36 940.9
20260901143318 96 0.0 0.0 0.00 0.00 0.00 35 940.9
20260901142318 96 0.0 0.0 0.00 0.00 0.00 35 941.1
20260901141818 97 0.0 0.0 0.00 0.00 0.00 35 940.6
20260901131233 95 0.0 0.0 0.00 0.00 0.00 36 1002.3
20260901130223 93 0.0 0.0 0.00 0.00 0.00 38 1008.4
20260901125723 93 0.0 0.0 0.00 0.00 0.00 38 1008.5
20260901125223 93 0.0 0.0 0.00 0.00 0.00 38 1008.7
20260901124723 93 0.0 0.0 0.00 0.00 0.00 38 1008.6
20260901124223 92 0.0 0.0 0.00 0.00 0.00 38 1008.7
20260901123723 92 0.0 0.0 0.00 0.00 0.00 38 1008.5
20260901123222 92 0.0 0.0 0.00 0.00 0.00 38 1008.6
20260901122723 91 0.0 0.0 0.00 0.00 0.00 38 1008.6
20260901122223 91 0.0 0.0 0.00 0.00 0.00 39 1008.6
20260901121723 92 0.0 0.0 0.00 0.00 0.00 38 1008.6
20260901114214 87 0.0 0.0 0.00 0.00 0.00 38 1011.2
20260901113714 87 0.0 0.0 0.00 0.00 0.00 37 1011.3
20260901112714 87 0.0 0.0 0.00 0.00 0.00 37 1011.1
20260901112214 87 0.0 0.0 0.00 0.00 0.00 37 1011.4
20260901110714 87 0.0 0.0 0.00 0.00 0.00 37 1011.2
20260901105714 87 0.0 0.0 0.00 0.00 0.00 37 1011.4
20260901105214 87 0.0 0.0 0.00 0.00 0.00 37 1011.4
20260901103713 87 0.0 0.0 0.00 0.00 0.00 37 1011.6